Regional Weather Roundup
Issued by NWS

Home | Current Version | Previous Version | Graphics & Text | Print | Product List | Glossary On
Versions: 1 2 3 4 5 6 7 8 9 10 11 12 13 14 15 16 17 18 19 20 21 22 23 24 25 26 27 28 29 30 31 32 33 34 35 36 37 38 39 40 41 42 43 44 45 46 47 48 49 50
000
ASUS43 KFSD 281110
RWRSD

WEATHER ROUNDUP FOR SOUTH DAKOTA
NATIONAL WEATHER SERVICE SIOUX FALLS SD
600 AM CDT WED SEP 28 2016

NOTE: "FAIR" INDICATES FEW OR NO CLOUDS BELOW 12,000 FEET WITH NO
SIGNIFICANT WEATHER AND/OR OBSTRUCTIONS TO VISIBILITY.


SDZ001>005-009-010-012>017-281200-
NORTHWEST AND NORTH CENTRAL SOUTH DAKOTA

CITY           SKY/WX    TMP DP  RH WIND       PRES   REMARKS
BUFFALO          N/A     50  44  80 W9        30.09R
FAITH            N/A     52  43  71 SE9       30.14R
MOBRIDGE       CLOUDY    43  38  82 SE7       30.15R
$$

SDZ012>016-024>037-041>051-057-063-072>074-281200-
SOUTHWEST AND SOUTH CENTRAL SOUTH DAKOTA

CITY           SKY/WX    TMP DP  RH WIND       PRES   REMARKS
RAPID CTY ARPT CLEAR     54  40  59 W9        30.16R
PIERRE         CLOUDY    39  35  86 E3        30.15R
CUSTER         CLEAR     50  35  56 N5        30.28R
ELLSWORTH AFB  CLEAR     48  41  75 W7        30.16R
PHILIP         CLEAR     40  38  93 W3        30.14R
PINE RIDGE     CLEAR     38  36  92 CALM      30.17R
WINNER         FAIR      49  42  77 CALM      30.15R
$$

SDZ004>011-016>023-039-040-281200-
NORTHEAST SOUTH DAKOTA

CITY           SKY/WX    TMP DP  RH WIND       PRES   REMARKS
ABERDEEN       CLOUDY    40  37  89 N5        30.16R
WATERTOWN      CLEAR     40  38  93 N8        30.12R
BROOKINGS      CLOUDY    47  42  83 N7        30.10R
SISSETON         N/A     40  38  93 NW7       30.14R
$$

SDZ017-020-022-023-036>040-048>070-281200-
SOUTHEAST SOUTH DAKOTA

CITY           SKY/WX    TMP DP  RH WIND       PRES   REMARKS
SIOUX FALLS    PTCLDY    47  43  86 N8        30.09R
HURON          CLOUDY    36  36 100 NW3       30.14R
CHAMBERLAIN    CLOUDY    44  37  77 CALM      30.14R
MITCHELL       CLOUDY    40  37  89 NW6       30.13R
YANKTON        CLOUDY    43  37  81 N5        30.09R
$$

ABBREVIATIONS USED IN REMARKS
   TC - TEMPERATURE IN CELSIUS
  WCI - WIND CHILL INDEX
   HX - HEAT INDEX
  VSB - VISIBILITY





USA.gov is the U.S. government's official web portal to all federal, state and local government web resources and services.